Wetterdaten: aktuell Sonntag, 28.02.2021 02:00
Datum Zeit Temp. A. Temp. 5cm Feuchte A. Luftdruck Regen Wind Richtung Richtung Taupunkt Windchill Windben Empfang
28.02.2021 02:00 1,6 C 0,6 C 84 % 1039,6 hPa 0,0 l/m 7,2 km/h (2 Bft) N-NO 26 -0,8 C 0,8 C 9,7 km/h (2 Bft) 96 %
28.02.2021 01:58 1,6 C 1,1 C 84 % 1039,5 hPa 0,0 l/m 8,1 km/h (2 Bft) NO 38 -0,8 C -0,1 C 12,9 km/h (3 Bft) 100 %
28.02.2021 01:56 1,8 C 1,1 C 83 % 1039,5 hPa 0,0 l/m 8,7 km/h (2 Bft) N-NO 31 -0,8 C -0,4 C 11,3 km/h (2 Bft) 100 %
28.02.2021 01:54 1,8 C 1,1 C 83 % 1039,5 hPa 0,0 l/m 8,5 km/h (2 Bft) N-NO 30 -0,8 C -0,2 C 12,9 km/h (3 Bft) 98 %
28.02.2021 01:52 1,9 C 1,1 C 83 % 1039,5 hPa 0,0 l/m 9,3 km/h (2 Bft) N-NO 30 -0,7 C -0,8 C 12,9 km/h (3 Bft) 96 %
28.02.2021 01:50 2,0 C 1,1 C 82 % 1039,5 hPa 0,0 l/m 8,1 km/h (2 Bft) N-NO 24 -0,7 C 0,4 C 11,3 km/h (2 Bft) 98 %
28.02.2021 01:48 2,1 C 1,1 C 82 % 1039,6 hPa 0,0 l/m 11,8 km/h (2 Bft) NO 34 -0,6 C -2,4 C 16,1 km/h (3 Bft) 100 %
28.02.2021 01:46 2,1 C 1,1 C 82 % 1039,6 hPa 0,0 l/m 10,0 km/h (2 Bft) NO 38 -0,6 C -1,1 C 12,9 km/h (3 Bft) 100 %
28.02.2021 01:44 2,3 C 1,1 C 82 % 1039,5 hPa 0,0 l/m 8,4 km/h (2 Bft) N-NO 25 -0,4 C 0,4 C 11,3 km/h (2 Bft) 100 %
28.02.2021 01:42 2,3 C 1,7 C 82 % 1039,6 hPa 0,0 l/m 11,6 km/h (2 Bft) NO 48 -0,4 C -2,1 C 14,5 km/h (3 Bft) 100 %
28.02.2021 01:40 2,3 C 1,7 C 82 % 1039,5 hPa 0,0 l/m 11,9 km/h (2 Bft) NO 49 -0,4 C -2,3 C 16,1 km/h (3 Bft) 100 %
28.02.2021 01:38 2,3 C 1,7 C 82 % 1039,5 hPa 0,0 l/m 14,7 km/h (3 Bft) N-NO 32 -0,4 C -4,0 C 17,7 km/h (3 Bft) 100 %
28.02.2021 01:36 2,3 C 1,7 C 82 % 1039,5 hPa 0,0 l/m 17,2 km/h (3 Bft) NO 55 -0,4 C -5,4 C 20,9 km/h (4 Bft) 100 %
28.02.2021 01:34 2,3 C 1,7 C 82 % 1039,5 hPa 0,0 l/m 16,3 km/h (3 Bft) NO 49 -0,4 C -4,9 C 19,3 km/h (3 Bft) 98 %
28.02.2021 01:32 2,3 C 1,7 C 82 % 1039,6 hPa 0,0 l/m 17,5 km/h (3 Bft) NO 53 -0,4 C -5,5 C 22,5 km/h (4 Bft) 100 %
28.02.2021 01:30 2,4 C 1,7 C 82 % 1039,5 hPa 0,0 l/m 15,1 km/h (3 Bft) O-NO 62 -0,4 C -4,1 C 20,9 km/h (4 Bft) 98 %
28.02.2021 01:28 2,4 C 1,7 C 82 % 1039,6 hPa 0,0 l/m 16,4 km/h (3 Bft) O-NO 62 -0,4 C -4,8 C 19,3 km/h (3 Bft) 100 %
28.02.2021 01:26 2,5 C 1,7 C 82 % 1039,6 hPa 0,0 l/m 17,3 km/h (3 Bft) NO 55 -0,3 C -5,2 C 20,9 km/h (4 Bft) 98 %
28.02.2021 01:24 2,5 C 1,7 C 82 % 1039,6 hPa 0,0 l/m 17,2 km/h (3 Bft) O-NO 64 -0,3 C -5,1 C 19,3 km/h (3 Bft) 100 %
28.02.2021 01:22 2,5 C 1,7 C 82 % 1039,6 hPa 0,0 l/m 17,5 km/h (3 Bft) O-NO 61 -0,3 C -5,3 C 20,9 km/h (4 Bft) 96 %
28.02.2021 01:20 2,5 C 1,7 C 82 % 1039,6 hPa 0,0 l/m 14,9 km/h (3 Bft) O-NO 61 -0,3 C -3,9 C 20,9 km/h (4 Bft) 100 %
28.02.2021 01:18 2,6 C 1,7 C 82 % 1039,6 hPa 0,0 l/m 15,8 km/h (3 Bft) NO 45 -0,2 C -4,3 C 20,9 km/h (4 Bft) 98 %
28.02.2021 01:16 2,6 C 2,2 C 82 % 1039,6 hPa 0,0 l/m 17,7 km/h (3 Bft) O-NO 61 -0,2 C -5,2 C 20,9 km/h (4 Bft) 100 %
28.02.2021 01:14 2,7 C 2,2 C 82 % 1039,6 hPa 0,0 l/m 19,8 km/h (3 Bft) NO 53 -0,1 C -6,1 C 24,1 km/h (4 Bft) 100 %
28.02.2021 01:12 2,6 C 2,2 C 82 % 1039,6 hPa 0,2 l/m 20,1 km/h (4 Bft) NO 49 -0,2 C -6,3 C 22,5 km/h (4 Bft) 100 %
28.02.2021 01:10 2,7 C 2,2 C 82 % 1039,6 hPa 0,0 l/m 19,3 km/h (3 Bft) O-NO 71 -0,1 C -5,8 C 22,5 km/h (4 Bft) 100 %
28.02.2021 01:08 2,7 C 2,2 C 83 % 1039,6 hPa 0,0 l/m 20,7 km/h (4 Bft) O-NO 62 0,1 C -6,4 C 22,5 km/h (4 Bft) 100 %
28.02.2021 01:06 2,6 C 2,2 C 83 % 1039,6 hPa 0,0 l/m 19,5 km/h (3 Bft) NO 50 0,0 C -6,1 C 22,5 km/h (4 Bft) 100 %
28.02.2021 01:04 2,6 C 2,2 C 83 % 1039,5 hPa 0,0 l/m 19,0 km/h (3 Bft) O-NO 60 0,0 C -5,8 C 22,5 km/h (4 Bft) 100 %
28.02.2021 01:02 2,6 C 2,2 C 83 % 1039,5 hPa 0,0 l/m 19,0 km/h (3 Bft) NO 36 0,0 C -5,8 C 24,1 km/h (4 Bft) 100 %
28.02.2021 01:00 2,6 C 2,2 C 83 % 1039,5 hPa 0,0 l/m 18,3 km/h (3 Bft) O-NO 61 0,0 C -5,5 C 22,5 km/h (4 Bft) 100 %
_ Min-Zeit 01:58 02:00 01:10 00:26 - 02:00 - - 01:58 01:08 00:00 00:18
Minimum _ 1,6 C 0,6 C 82 % 1039,5 hPa - 7,2 km/h (2 Bft) - - -0,8 C -6,4 C 9,7 km/h (2 Bft) 94 %
_ Max-Zeit 01:06 00:10 00:00 00:00 01:12 01:08 - - 00:16 02:00 00:50 00:00
Maximum _ 2,7 C 2,2 C 87 % 1039,6 hPa 0,2 l/m 20,7 km/h
O-NO (4 Bft)
- - 0,3 C 0,8 C 24,1 km/h
O-NO (4 Bft)
100 %
Durchschnitt _ 2,4 C 1,9 C 84 % 1039,6 hPa #0,2 l/m 14,6 km/h (3 Bft) O-NO - -0,1 C -3,7 C 18,2 km/h (3 Bft) 98 %